• In Lithuania
  • List of Countries
  • For 7 days
  • Water Temperature
  • Satellite Maps
  • Weather Map
  • Weather Widgets
  • user-avatar
    Login

    Hourly Weather Kaposvar

    Today, 24 October, Wednesday

    Time Temperature Precipitation Wind Pressure Humidity
    00:00 +11°C° 0 mm 3 mps 745 mmHg 64%
    01:00 +12°C° 0 mm 3 mps 745 mmHg 62%
    02:00 +11°C° 0 mm 3 mps 744 mmHg 62%
    03:00 +11°C° 0 mm 3 mps 743 mmHg 62%
    04:00 +11°C° 0 mm 3 mps 743 mmHg 62%
    05:00 +11°C° 0 mm 4 mps 742 mmHg 60%
    06:00 +11°C° 0 mm 4 mps 742 mmHg 58%
    07:00 +11°C° 0 mm 4 mps 741 mmHg 57%
    08:00 +13°C° 0 mm 6 mps 741 mmHg 52%
    09:00 +15°C° 0 mm 8 mps 741 mmHg 47%
    10:00 +17°C° 0 mm 9 mps 741 mmHg 42%
    11:00 +16°C° 0.2 mm 9 mps 742 mmHg 49%
    12:00 +15°C° 0.2 mm 8 mps 742 mmHg 55%
    13:00 +13°C° 0.2 mm 8 mps 742 mmHg 62%
    14:00 +12°C° 0.3 mm 8 mps 742 mmHg 65%
    15:00 +11°C° 0.3 mm 7 mps 743 mmHg 67%
    16:00 +10°C° 0.3 mm 7 mps 743 mmHg 70%
    17:00 +9°C° 0.1 mm 6 mps 744 mmHg 66%
    18:00 +9°C° 0.1 mm 6 mps 745 mmHg 63%
    19:00 +8°C° 0.1 mm 6 mps 746 mmHg 59%
    20:00 +8°C° 0 mm 5 mps 747 mmHg 60%
    21:00 +7°C° 0 mm 5 mps 748 mmHg 60%
    22:00 +6°C° 0 mm 5 mps 749 mmHg 60%
    23:00 +6°C° 0 mm 4 mps 749 mmHg 62%

    Tomorrow, 25 October, Thursday

    Time Temperature Precipitation Wind Pressure Humidity
    00:00 +5°C° 0 mm 3 mps 749 mmHg 63%
    01:00 +6°C° 0 mm 2 mps 749 mmHg 65%
    02:00 +6°C° 0.1 mm 2 mps 749 mmHg 68%
    03:00 +5°C° 0.1 mm 3 mps 749 mmHg 70%
    04:00 +5°C° 0.1 mm 3 mps 749 mmHg 72%
    05:00 +5°C° 0.1 mm 3 mps 749 mmHg 74%
    06:00 +6°C° 0.1 mm 4 mps 749 mmHg 76%
    07:00 +6°C° 0.1 mm 4 mps 749 mmHg 78%
    08:00 +6°C° 0 mm 4 mps 749 mmHg 76%
    09:00 +7°C° 0 mm 4 mps 749 mmHg 73%
    10:00 +8°C° 0 mm 5 mps 749 mmHg 71%
    11:00 +10°C° 0 mm 5 mps 748 mmHg 64%
    12:00 +13°C° 0 mm 5 mps 748 mmHg 57%
    13:00 +16°C° 0 mm 5 mps 747 mmHg 51%
    14:00 +15°C° 0 mm 4 mps 747 mmHg 52%
    15:00 +16°C° 0 mm 3 mps 746 mmHg 53%
    16:00 +16°C° 0 mm 2 mps 746 mmHg 54%
    17:00 +15°C° 0 mm 2 mps 746 mmHg 59%
    18:00 +14°C° 0 mm 1 mps 746 mmHg 64%
    19:00 +12°C° 0 mm 1 mps 746 mmHg 68%
    20:00 +12°C° 0 mm 1 mps 746 mmHg 69%
    21:00 +12°C° 0 mm 1 mps 746 mmHg 71%
    22:00 +11°C° 0 mm 1 mps 747 mmHg 72%
    23:00 +11°C° 0 mm 1 mps 747 mmHg 74%

    Day after tomorrow, 26 October, Friday

    Time Temperature Precipitation Wind Pressure Humidity
    00:00 +11°C° 0 mm 1 mps 747 mmHg 75%
    01:00 +11°C° 0 mm 1 mps 746 mmHg 77%
    02:00 +11°C° 0 mm 1 mps 746 mmHg 79%
    03:00 +10°C° 0 mm 1 mps 746 mmHg 81%
    04:00 +10°C° 0 mm 1 mps 746 mmHg 83%
    05:00 +10°C° 0 mm 1 mps 746 mmHg 84%
    06:00 +10°C° 0 mm 1 mps 746 mmHg 84%
    07:00 +10°C° 0 mm 1 mps 746 mmHg 85%
    08:00 +12°C° 0 mm 2 mps 746 mmHg 76%
    09:00 +14°C° 0 mm 2 mps 746 mmHg 67%
    10:00 +16°C° 0 mm 3 mps 746 mmHg 59%
    11:00 +16°C° 0 mm 3 mps 745 mmHg 59%
    12:00 +17°C° 0 mm 3 mps 745 mmHg 59%
    13:00 +17°C° 0 mm 4 mps 744 mmHg 59%
    14:00 +17°C° 0 mm 4 mps 744 mmHg 59%
    15:00 +17°C° 0 mm 3 mps 743 mmHg 59%
    16:00 +17°C° 0 mm 3 mps 743 mmHg 60%
    17:00 +16°C° 0 mm 3 mps 743 mmHg 63%
    18:00 +14°C° 0 mm 3 mps 742 mmHg 67%
    19:00 +13°C° 0 mm 3 mps 742 mmHg 70%
    20:00 +13°C° 0 mm 3 mps 742 mmHg 73%
    21:00 +13°C° 0 mm 3 mps 742 mmHg 75%
    22:00 +13°C° 0 mm 3 mps 742 mmHg 78%
    23:00 +13°C° 0 mm 3 mps 742 mmHg 80%

    27 October, Saturday

    Time Temperature Precipitation Wind Pressure Humidity
    00:00 +13°C° 0 mm 3 mps 742 mmHg 82%
    01:00 +13°C° 0 mm 3 mps 742 mmHg 85%
    02:00 +13°C° 0.4 mm 3 mps 742 mmHg 85%
    03:00 +13°C° 0.4 mm 3 mps 742 mmHg 86%
    04:00 +14°C° 0.4 mm 3 mps 742 mmHg 86%
    05:00 +13°C° 0.5 mm 3 mps 742 mmHg 84%
    06:00 +12°C° 0.5 mm 3 mps 742 mmHg 81%
    07:00 +12°C° 0.5 mm 4 mps 742 mmHg 78%
    08:00 +11°C° 0.5 mm 4 mps 742 mmHg 77%
    09:00 +11°C° 0.5 mm 4 mps 743 mmHg 76%
    10:00 +10°C° 0.5 mm 4 mps 743 mmHg 75%
    11:00 +10°C° 0.3 mm 4 mps 743 mmHg 75%
    12:00 +10°C° 0.3 mm 4 mps 742 mmHg 74%
    13:00 +10°C° 0.3 mm 4 mps 742 mmHg 74%
    14:00 +10°C° 0.1 mm 4 mps 742 mmHg 73%
    15:00 +8°C° 0.1 mm 5 mps 742 mmHg 73%
    16:00 +8°C° 0.1 mm 5 mps 742 mmHg 73%
    17:00 +8°C° 0.1 mm 5 mps 742 mmHg 74%
    18:00 +7°C° 0.1 mm 4 mps 742 mmHg 75%
    19:00 +7°C° 0.1 mm 4 mps 742 mmHg 76%
    20:00 +7°C° 0.1 mm 4 mps 742 mmHg 76%
    21:00 +7°C° 0.1 mm 4 mps 742 mmHg 77%
    22:00 +8°C° 0.1 mm 3 mps 742 mmHg 78%
    23:00 +8°C° 0.1 mm 3 mps 742 mmHg 79%

    28 October, Sunday

    Time Temperature Precipitation Wind Pressure Humidity
    00:00 +8°C° 0.1 mm 3 mps 742 mmHg 80%
    01:00 +8°C° 0.1 mm 3 mps 742 mmHg 81%
    02:00 +8°C° 0 mm 3 mps 742 mmHg 82%
    03:00 +8°C° 0 mm 2 mps 741 mmHg 83%
    04:00 +8°C° 0 mm 2 mps 741 mmHg 84%
    05:00 +8°C° 0.1 mm 2 mps 741 mmHg 85%
    06:00 +8°C° 0.1 mm 2 mps 741 mmHg 86%
    07:00 +9°C° 0.1 mm 2 mps 741 mmHg 88%
    08:00 +10°C° 0.5 mm 2 mps 741 mmHg 86%
    09:00 +12°C° 0.5 mm 2 mps 740 mmHg 85%
    10:00 +13°C° 0.5 mm 2 mps 740 mmHg 84%
    11:00 +13°C° 0.5 mm 3 mps 740 mmHg 79%
    12:00 +16°C° 0.5 mm 3 mps 740 mmHg 75%
    13:00 +17°C° 0.5 mm 3 mps 739 mmHg 70%
    14:00 +18°C° 0 mm 4 mps 739 mmHg 67%
    15:00 +18°C° 0 mm 4 mps 739 mmHg 64%
    16:00 +19°C° 0 mm 4 mps 739 mmHg 61%
    17:00 +19°C° 0 mm 5 mps 739 mmHg 62%
    18:00 +17°C° 0 mm 5 mps 738 mmHg 63%
    19:00 +17°C° 0 mm 5 mps 738 mmHg 63%
    20:00 +17°C° 0.1 mm 5 mps 738 mmHg 64%
    21:00 +18°C° 0.1 mm 4 mps 738 mmHg 65%
    22:00 +17°C° 0.1 mm 4 mps 738 mmHg 65%
    23:00 +16°C° 0.3 mm 5 mps 737 mmHg 66%

    29 October, Monday

    Time Temperature Precipitation Wind Pressure Humidity
    00:00 +17°C° 0.3 mm 5 mps 737 mmHg 66%
    01:00 +17°C° 0.3 mm 6 mps 737 mmHg 66%
    02:00 +17°C° 0.1 mm 6 mps 736 mmHg 64%
    03:00 +17°C° 0.1 mm 6 mps 736 mmHg 63%
    04:00 +17°C° 0.1 mm 7 mps 735 mmHg 62%
    05:00 +17°C° 0.3 mm 6 mps 735 mmHg 63%
    06:00 +17°C° 0.3 mm 6 mps 735 mmHg 64%
    07:00 +17°C° 0.3 mm 6 mps 735 mmHg 65%
    08:00 +17°C° 0.5 mm 6 mps 736 mmHg 69%
    09:00 +17°C° 0.5 mm 7 mps 736 mmHg 72%
    10:00 +17°C° 0.5 mm 7 mps 736 mmHg 76%
    11:00 +17°C° 0.1 mm 7 mps 736 mmHg 73%
    12:00 +18°C° 0.1 mm 7 mps 736 mmHg 70%
    13:00 +20°C° 0.1 mm 7 mps 736 mmHg 67%
    14:00 +20°C° 0.1 mm 6 mps 736 mmHg 67%
    15:00 +20°C° 0.1 mm 5 mps 736 mmHg 66%
    16:00 +20°C° 0.1 mm 3 mps 736 mmHg 66%
    17:00 +19°C° 0 mm 3 mps 736 mmHg 69%
    18:00 +18°C° 0 mm 3 mps 736 mmHg 72%
    19:00 +17°C° 0 mm 3 mps 736 mmHg 75%
    20:00 +17°C° 0 mm 3 mps 736 mmHg 73%
    21:00 +17°C° 0 mm 4 mps 736 mmHg 72%
    22:00 +17°C° 0 mm 4 mps 736 mmHg 70%
    23:00 +16°C° 0 mm 5 mps 735 mmHg 68%

    30 October, Tuesday

    Time Temperature Precipitation Wind Pressure Humidity
    00:00 +16°C° 0 mm 6 mps 735 mmHg 66%
    01:00 +16°C° 0 mm 6 mps 735 mmHg 64%
    02:00 +16°C° 0.1 mm 6 mps 735 mmHg 69%
    03:00 +15°C° 0.1 mm 5 mps 736 mmHg 73%
    04:00 +15°C° 0.1 mm 4 mps 736 mmHg 78%
    05:00 +14°C° 0 mm 3 mps 736 mmHg 80%
    06:00 +15°C° 0 mm 2 mps 736 mmHg 82%
    07:00 +14°C° 0 mm 2 mps 736 mmHg 83%
    08:00 +15°C° 0.1 mm 1 mps 736 mmHg 78%
    09:00 +16°C° 0.1 mm 1 mps 736 mmHg 73%
    10:00 +18°C° 0.1 mm 1 mps 736 mmHg 67%
    11:00 +18°C° 0.1 mm 1 mps 736 mmHg 64%
    12:00 +18°C° 0.1 mm 2 mps 736 mmHg 61%
    13:00 +18°C° 0.1 mm 2 mps 737 mmHg 58%
    14:00 +17°C° 0.2 mm 2 mps 736 mmHg 62%
    15:00 +16°C° 0.2 mm 2 mps 736 mmHg 66%
    16:00 +15°C° 0.2 mm 2 mps 736 mmHg 70%
    17:00 +15°C° 0.2 mm 2 mps 736 mmHg 71%
    18:00 +14°C° 0.2 mm 2 mps 737 mmHg 73%
    19:00 +14°C° 0.2 mm 2 mps 737 mmHg 74%
    20:00 +12°C° 0 mm 3 mps 738 mmHg 74%
    21:00 +12°C° 0 mm 3 mps 738 mmHg 74%
    22:00 +12°C° 0 mm 4 mps 739 mmHg 74%
    23:00 +12°C° 0 mm 4 mps 740 mmHg 74%
    Show more